GREENCUBE (IO-117)

Last updated on Mon Sep 15 2025 00:03:09 GMT+0000 (Coordinated Universal Time)

1 53109U 22080E 25256.30709715 -.00000003 00000+0 00000+0 0 9994 2 53109 70.1525 34.5144 0008522 349.1128 10.9347 6.42583763 74274
UTC large
Height (km)
Speed (km/s)
/
Latitude / Longitude
Inclination (degrees)
Orbital Period (minutes)
Azimuth
Elevation
Range (km)
Doppler Factor

Next 0 passes for location: London (51.5072 / 0.1276)

Sorry there are no passes over London.